OpenBCM V1.08-5-g2f4a (Linux)

Packet Radio Mailbox

IZ3LSV

[San Dona' di P. JN]

 Login: GUEST





  
I0OJJ  > KEPS     15.06.25 02:44l 341 Lines 16337 Bytes #87 (0) @ AMSAT
BID : ORB25166.1
Read: GUEST
Subj: 2Line Orbital Elements 25166.AMSAT
Path: IZ3LSV<DB0ERF<DK0WUE<PD0LPM<PI8ZTM<PI8LAP<K5DAT<VE3CGR<VE3TOK<LU9DCE<
      EA2RCF<I0OJJ
Sent: 250615/0025z @:I0OJJ.ITA.EU [Rome] obcm1.08-10-g596e
From: I0OJJ @ I0OJJ.ITA.EU (Gustavo)
To:   KEPS @ AMSAT
X-Info: This message was generated automatically


QST de W1STR

AMSAT Orbital Elements for Amateur Satellites in TLE Format
From Orbital Analysis Office
New England Sci-Tech STEM Education Center
Natick, MA June 15, 2025
To all radio amateurs


These element sets describe the orbits of various satellites 
in use by the amateur radio community. For details see:
www.amsat.org/keplerian-elements-formats/

A daily update of element sets is available at:
www.amsat.org/tle/daily-bulletin.txt
or without bulletin text:
www.amsat.org/tle/dailytle.txt


AO-07
1 07530U 74089B   25165.83101929 -.00000040  00000-0  42197-4 0  9997
2 07530 101.9926 170.1509 0012588 111.4824 302.2567 12.53689685314728
UO-11
1 14781U 84021B   25165.50540500  .00001247  00000-0  13693-3 0  9993
2 14781  97.7545 131.7762 0006953 331.2809  28.8024 14.89402670202375
AO-27
1 22825U 93061C   25165.39265866  .00000126  00000-0  65332-4 0  9994
2 22825  98.7363 226.9722 0009566  98.4170 261.8097 14.30801264654403
FO-29
1 24278U 96046B   25165.70567511 -.00000024  00000-0  14101-4 0  9997
2 24278  98.5753  58.9227 0349396 329.5026  28.6199 13.53249324423714
NOAA-15
1 25338U 98030A   25165.85995992  .00000189  00000-0  95400-4 0  9996
2 25338  98.5344 190.8640 0009914 351.2073   8.8933 14.26982562409153
GO-32
1 25397U 98043D   25165.53901681  .00000056  00000-0  44535-4 0  9998
2 25397  98.9703 144.7614 0001438 148.2462 211.8803 14.24316361398996
ISS
1 25544U 98067A   25165.81361073  .00010333  00000-0  18747-3 0  9998
2 25544  51.6371 318.8403 0001501 246.5954 113.4877 15.50200772514790
NO-44
1 26931U 01043C   25165.25630321  .00000156  00000-0  89400-4 0  9997
2 26931  67.0500 115.7490 0006064 276.1192  83.9218 14.31736973237773
SO-50
1 27607U 02058C   25165.41245931  .00001052  00000-0  14844-3 0  9997
2 27607  64.5512 185.6184 0056949 332.9424  26.8715 14.81635863209948
CO-55
1 27844U 03031E   25165.52804564  .00000297  00000-0  14848-3 0  9991
2 27844  98.6752 173.7375 0009887 165.9365 194.2091 14.24000390139343
CO-57
1 27848U 03031J   25165.75995090  .00000242  00000-0  12592-3 0  9999
2 27848  98.6780 173.9681 0009416 182.3373 177.7762 14.23334581139151
RS-22
1 27939U 03042A   25165.77973053  .00000984  00000-0  16379-3 0  9999
2 27939  98.3284 335.3567 0011336   0.3903 126.7743 14.72366901161598
CO-58
1 28895U 05043F   25165.34764953  .00001440  00000-0  24274-3 0  9995
2 28895  98.2507 309.7573 0013257 293.7885  66.1931 14.71030013 47646
CO-65
1 32785U 08021C   25165.59352000  .00005089  00000-0  36781-3 0  9999
2 32785  97.7861 136.7931 0009490 186.0254 174.0859 15.04479776929838
CO-66
1 32791U 08021J   25165.51326494  .00010714  00000-0  51760-3 0  9991
2 32791  97.7274 145.6642 0005167 132.0127 228.1548 15.18820819931245
RS-30
1 32953U 08025A   25165.87458399  .00000033  00000-0  16789-3 0  9999
2 32953  82.5027 223.8849 0019853  38.0214 322.2262 12.43165241774194
NOAA-19
1 33591U 09005A   25165.72557111  .00000169  00000-0  11420-3 0  9990
2 33591  98.9970 230.4589 0013475 353.9944   6.1065 14.13376763842837
SRMSAT
1 37841U 11058D   25165.56409251  .00000409  00000-0  78604-4 0  9991
2 37841  19.9707 124.3840 0011969 119.4776  37.3149 14.11437854705817
ZACUBE-1
1 39417U 13066B   25165.39989749  .00005305  00000-0  46032-3 0  9998
2 39417  97.7802 122.3871 0045024  37.4279 323.0063 14.96693756625635
Delfi-N3xt
1 39428U 13066N   25165.33442857  .00008159  00000-0  82823-3 0  9996
2 39428  97.8352  82.9315 0084379 346.2663  13.6258 14.88460346619781
GOMX-1
1 39430U 13066Q   25165.87207255  .00002011  00000-0  31768-3 0  9992
2 39430  97.6827  24.2119 0132488 174.8609 185.3994 14.67656713616187
LO-74
1 39440U 13066AA  25165.51296525  .00003423  00000-0  34847-3 0  9991
2 39440  97.8500 110.0391 0062396 162.3641 197.9763 14.89961727622179
AO-73
1 39444U 13066AE  25165.34238367  .00007879  00000-0  58775-3 0  9991
2 39444  97.7840 127.2758 0042689  14.3225 345.9198 15.02405206624308
DTUSAT-2
1 40030U 14033W   25165.53212859  .00007047  00000-0  45778-3 0  9994
2 40030  98.0558 137.5897 0010464  50.5123 309.7028 15.08326144597144
EO-80
1 40032U 14033Y   25165.48579743  .00006301  00000-0  40910-3 0  9993
2 40032  98.0432 137.1896 0008248 355.8902   4.2256 15.08407159597118
LILACSAT-2
1 40908U 15049K   25165.74617949  .00011126  00000-0  28944-3 0  9997
2 40908  97.5048 186.2172 0010717 134.8893 225.3224 15.39029586539022
IO-86
1 40931U 15052B   25151.18580175  .00001241  00000-0  78118-4 0  9996
2 40931   6.0006  24.0987 0012733 338.8432  21.1169 14.78805930523047
Horyu-4
1 41340U 16012D   25165.15318910  .00022775  00000-0  60396-3 0  9999
2 41340  30.9963 101.1785 0005700 106.8484 253.2787 15.37074087513498
Lapan A3
1 41603U 16040E   25165.86394497  .00003549  00000-0  12500-3 0  9996
2 41603  97.1364 170.2640 0009193 246.5158 113.5117 15.29892972498597
CAS-2T
1 41847U 16066G   25165.74242283  .00002004  00000-0  29203-3 0  9999
2 41847  98.4196 240.1603 0346603 162.7141 198.6209 14.43497422451761
CAS-4B
1 42759U 17034B   25165.76937243  .00062551  00000-0  63535-3 0  9996
2 42759  43.0073 290.9386 0021319 324.1353  35.8080 15.64038545443411
CAS-4A
1 42761U 17034D   25165.73439498  .00071559  00000-0  68694-3 0  9994
2 42761  43.0112 288.2459 0022535 328.2768  31.6739 15.65369558443434
TechnoSat
1 42829U 17042E   25165.70783273  .00002183  00000-0  17182-3 0  9991
2 42829  97.3886 334.1777 0013866 255.8269 104.1416 15.01736172431492
AO-91
1 43017U 17073E   25165.58071556  .00008949  00000-0  45615-3 0  9993
2 43017  97.5251  36.2262 0173201 149.1837 211.9698 15.04798199409961
S-Net D
1 43186U 18014G   25165.46277184  .00005357  00000-0  31663-3 0  9996
2 43186  97.5624  68.3195 0008337 197.6442 162.4500 15.11874479403117
S-Net B
1 43187U 18014H   25165.46823082  .00005302  00000-0  31355-3 0  9999
2 43187  97.5631  68.2969 0009201 193.5819 166.5165 15.11853575403114
S-Net A
1 43188U 18014J   25165.26458400  .00005384  00000-0  31816-3 0  9998
2 43188  97.5638  68.2461 0009044 194.9054 165.1911 15.11877047403080
S-Net C
1 43189U 18014K   25165.66919637  .00005194  00000-0  30715-3 0  9993
2 43189  97.5653  68.6616 0010807 187.3832 172.7241 15.11851909401697
Ten-Koh
1 43677U 18084G   25165.46359852  .00002167  00000-0  17668-3 0  9996
2 43677  98.0864 337.9128 0005650 237.9713 122.0961 15.00597210360971
PO-101
1 43678U 18084H   25165.73076223  .00001222  00000-0  10787-3 0  9991
2 43678  98.1040 342.0524 0007149 273.5444  86.4960 14.98357278361155
QO-100
1 43700U 18090A   25165.73736153  .00000157  00000-0  00000+0 0  9998
2 43700   0.0135 349.0308 0002309 129.1644  76.3312  1.00269881 24231
MinXSS-2
1 43758U 18099A   25165.44554121  .00017370  00000-0  67843-3 0  9998
2 43758  97.5014 231.4956 0013188 135.3875 224.8427 15.25872328357713
AO-95
1 43770U 18099N   25165.59497444  .00008856  00000-0  44669-3 0  9992
2 43770  97.4904 223.6252 0010691 185.9905 174.1202 15.17319591357310
RANGE-A
1 43773U 18099R   25165.17575327  .00004496  00000-0  28683-3 0  9990
2 43773  97.4469 213.4444 0011745 167.8338 192.3177 15.09129620356910
MOVE-II
1 43780U 18099Y   25165.47606777  .00301413  00000-0  16048-2 0  9995
2 43780  97.4630 241.4910 0005471 197.4761 162.6319 15.79611997358577
SNUSat 2
1 43782U 18099AA  25165.69344298  .00007492  00000-0  40731-3 0  9995
2 43782  97.4587 220.4322 0013428 132.2683 227.9690 15.14690445357272
SnugLite
1 43784U 18099AC  25165.42636357  .00010435  00000-0  52115-3 0  9998
2 43784  97.4399 219.7401 0004949 127.4606 232.7079 15.17655674357377
ITASat 1
1 43786U 18099AE  25165.57227948  .00007011  00000-0  39980-3 0  9999
2 43786  97.4551 219.8089 0014399 182.8206 177.2947 15.12991834357219
EAGLET 1
1 43790U 18099AJ  25165.58983535  .00003825  00000-0  24484-3 0  9998
2 43790  97.4750 219.7669 0012558 165.1028 195.0574 15.09094314356822
ESEO
1 43792U 18099AL  25165.86234150  .00001731  00000-0  13394-3 0  9995
2 43792  97.4491 213.2248 0014357 139.0972 221.1333 15.02644600356618
CSIM
1 43793U 18099AM  25165.46897480  .00133479  00000-0  80676-3 0  9995
2 43793  97.4794 243.7388 0005298 177.5448 182.5845 15.77213488358413
JO-97
1 43803U 18099AX  25165.65055849  .00011526  00000-0  52277-3 0  9997
2 43803  97.4649 224.6811 0008975 123.5602 236.6492 15.20948352357546
Suomi 100
1 43804U 18099AY  25165.40957091  .00010530  00000-0  51245-3 0  9999
2 43804  97.4719 223.7253 0013916 127.9826 232.2667 15.18484914357432
ISAT
1 43879U 18111D   25165.53076074  .00017278  00000-0  59465-3 0  9991
2 43879  97.5958  80.0336 0009088 166.7431 193.4050 15.30087387354454
UWE-4
1 43880U 18111E   25165.65512694  .00013569  00000-0  52856-3 0  9995
2 43880  97.5902  78.6042 0011688 182.9466 177.1705 15.26040184352407
Sparrow
1 43881U 18111F   25165.50874468  .00018376  00000-0  60878-3 0  9994
2 43881  97.6105  82.9079 0005795 202.1831 157.9160 15.31333571354544
Prox-1
1 44339U 19036A   25165.00038890  .00017809  00000-0  22611-2 0  9998
2 44339  23.9985  32.7581 0007040 122.7629 237.3547 14.80056701318675
SONATE
1 44400U 19038Q   25165.59242266  .00374236  60309-4  80291-3 0  9998
2 44400  97.6804 193.3385 0008175 196.1223 163.9794 15.98483438330373
Taurus 1
1 44530U 19059C   25165.70925027  .00005449  00000-0  10051-2 0  9992
2 44530  98.6083 305.3453 0009238  29.0389 331.1326 14.65908012304695
Duchifat 3
1 44854U 19089C   25165.78847662  .00043376  00000-0  83212-3 0  9991
2 44854  36.9442 322.0704 0004368 348.0173  12.0480 15.47010801303750
TO-108
1 44881U 19093C   25165.74616034  .00000877  00000-0  10739-3 0  9992
2 44881  97.7924 241.2879 0013057 209.2774 150.7711 14.85611758296842
